リード彗星

344P/Read (2016)

English version
Home page
Updated on May 22, 2017

---------------------------------------------------------------------

・ プロフィール

符号 344P/2016 Q1
検出日 2016年8月27日
検出光度 19.3等
検出者 K. Sarneczky and P. Szekely (Piszkesteto Station of Konkoly Observatory)

・ 写真集

・ 軌道要素

Epoch 2016 Oct. 19.0 TT = JDT 2457680.5
T 2016 Nov. 1.29856 TT                                  MPCW
q   2.8205495            (2000.0)            P               Q
n   0.09145458     Peri.  140.61971     +0.58939015     -0.80555984
a   4.8790180      Node   273.18322     +0.72497962     +0.56061767
e   0.4219022      Incl.    3.48922     +0.35640400     +0.19178417
P  10.78
From 492 observations 1951 Dec. 1-2017 Mar. 2, mean residual 0".5.

・ 光度変化

        m1 = 5.5 + 5 logΔ + 25.0 log r

---------------------------------------------------------------------

軌道要素はM.P.E.C. 2017-E59に掲載されたものです。
光度グラフはComet for Windowsで作成したものです。

---------------------------------------------------------------------

Copyright(C) Seiichi Yoshida (comet@aerith.net). All rights reserved.